Regional Weather Roundup
Issued by NWS

Home | Current Version | Previous Version | Text Only | Print | Product List | Glossary Off
Versions: 1 2 3 4 5 6 7 8 9 10 11 12 13 14 15 16 17 18 19 20 21 22 23 24 25 26 27 28

000
ASUS45 KBOU 230910
RWRCO

WEATHER ROUNDUP FOR COLORADO
NATIONAL WEATHER SERVICE DENVER/BOULDER CO
200 AM MST TUE JAN 23 2018

NOTE: "FAIR" INDICATES FEW OR NO CLOUDS BELOW 12000 FEET WITH NO
SIGNIFICANT WEATHER AND/OR OBSTRUCTIONS TO VISIBILITY.

COZ001>005-013-030-031-231000-
...NORTHWEST COLORADO...

CITY           SKY/WX    TMP DP  RH WIND       PRES   REMARKS
CRAIG          CLOUDY    16  10  77 SW5       30.26R WCI   9
HAYDEN         CLOUDY    16  11  80 E5        30.26R WCI   9
MEEKER         CLOUDY    17  12  80 NE5       30.25S WCI  10
RABBIT EARS PA LGT SNOW N/A N/A N/A W12G21    30.09S VSB 3/4
STEAMBOAT SPGS CLOUDY    12  10  89 CALM      30.24R
WALDEN         MOCLDY    18   9  68 SW17G25   30.14R WCI   2
$$

COZ006>008-011-231000-
...WEST CENTRAL VALLEYS...

CITY           SKY/WX    TMP DP  RH WIND       PRES   REMARKS
GRAND JUNCTION FAIR      14  11  87 E5        30.31S WCI   6
MONTROSE       CLOUDY    20  12  71 SE7       30.33S WCI  11
EAGLE          CLOUDY    18  13  80 E10       30.28S WCI   6
RIFLE          CLOUDY    25  18  74 CALM      30.31R
DELTA          CLOUDY    24  16  71 N3        30.33R
NUCLA          FAIR      16   9  73 E8        30.33S WCI   5
$$

COZ017>023-064>068-231000-
...SOUTHWEST COLORADO...

CITY           SKY/WX    TMP DP  RH WIND       PRES   REMARKS
DURANGO        FAIR       6   4  91 NE5       30.24R WCI  -3
CORTEZ         FAIR       8   5  87 E7        30.28S WCI  -3
PAGOSA SPRINGS FAIR       4   1  90 CALM      30.22S
TELLURIDE      CLOUDY    10   5  79 SE6       30.23S WCI   0
WOLF CREEK PAS FAIR      10 -11  37 W6        30.18R WCI   1
$$

COZ009-010-012-014-032>034-037-058>063-231000-
...CENTRAL COLORADO...

CITY           SKY/WX    TMP DP  RH WIND       PRES   REMARKS
ASPEN          FLURRIES  16  12  84 S3        30.22S
BUENA VISTA    FAIR      19   4  52 NE6       30.15R WCI  11
COPPER MTN     NOT AVBL
BERTHOUD PASS  SNOW       1  -9  60 NW40      29.95R VSB 1/2 WCI -27
COTTONWOOD PAS FAIR      21   9  58 W7        30.10R WCI  13
GUNNISON       FAIR       4  -2  76 NE6       30.26S WCI  -7
KREMMLING      CLOUDY    14   9  79 CALM      30.24R
LEADVILLE      CLOUDY     3  -1  83 NE3       30.13R
MONARCH PASS   FAIR       5   1  85 W32G43    30.16S WCI -20
SALIDA         FAIR      16   4  58 N3        30.23S
SUNLIGHT       LGT SNOW   9   5  85 SW7       30.20S WCI  -3
WILKERSON PASS   N/A     10   0  61 NW6       30.08S WCI   1
$$

COZ069>075-231000-
...SAN LUIS VALLEY/SANGRE DE CRISTO MOUNTAINS...

CITY           SKY/WX    TMP DP  RH WIND       PRES   REMARKS
ALAMOSA        FAIR      -6 -10  83 SW5       30.20R WCI -17
DEL NORTE      FAIR      11  -3  54 W15       30.19S WCI  -6
LA VETA PASS   FAIR       9   1  72 S22G35      N/A  WCI -11
SAGUACHE       FAIR      10   0  61 N10       30.20S WCI  -3
$$

COZ035-036-038>040-231000-
...NORTHERN COLORADO FRONT RANGE...

CITY           SKY/WX    TMP DP  RH WIND       PRES   REMARKS
DENVER INTL AP MOCLDY    29  13  51 N3        30.12R
DMNS CITY PARK NOT AVBL
AURORA         MOCLDY    29  12  47 NW9       30.11R WCI  21
FRONT RANGE AP CLOUDY    29  15  55 W8        30.12R WCI  22
ERIE MUNI ARPT FAIR      28  12  53 CALM      30.18R
BOULDER MUN AP FAIR      36   9  32 W12G22    30.11R
CENTENNIAL     CLOUDY    28  10  46 CALM      30.10S
BROOMFIELD     FAIR      32  12  43 W16       30.12R WCI  21
FORT COLLINS   FAIR      24  14  65 E7        30.13R WCI  16
LONGMONT       FAIR      23  14  69 N3        30.14R
$$

COZ041-046-047-076>085-087-088-231000-
...PIKES PEAK/PALMER DIVIDE AND SOUTHERN FOOTHILLS...

CITY           SKY/WX    TMP DP  RH WIND       PRES   REMARKS
COLO. SPRINGS  FAIR      20   7  57 NE9       30.13R WCI   9
A. F. ACADEMY  FAIR      18   4  53 CALM      30.11R
SCHRIEVER AFB  FAIR      21   5  51 CALM      30.13R
CHEYENNE MTN   FAIR      24   1  36 N8        30.05R WCI  15
ELLICOTT         N/A    N/A N/A N/A CALM      30.11R
FALCON         FAIR      21   3  46 NW7       30.12R WCI  12
FORT CARSON    FAIR      20   8  61 N8        30.11R WCI  10
LIMON          FAIR      14   8  77 W7        30.13R WCI   4
MONUMENT HILL  FAIR      21   3  45 SW9       30.11R WCI  11
CANON CITY     FAIR      28   9  43 W13       30.13R WCI  18
WALSENBURG     NOT AVBL
TRINIDAD       FAIR      17   4  56 W13       30.12S WCI   4
$$

COZ042>045-048>051-090-091-231000-
...NORTHEAST COLORADO...

CITY           SKY/WX    TMP DP  RH WIND       PRES   REMARKS
GREELEY ARPT   FAIR      22  17  81 CALM      30.14R
AKRON          CLOUDY    23  13  65 W10       30.12R WCI  12
BURLINGTON     FAIR      17   7  64 W9        30.12R WCI   6
WRAY           FAIR      18  10  73 SW5       30.13R WCI  11
YUMA           FAIR      19  10  68 W9        30.12R WCI   9
STERLING       CLOUDY    32  23  69 NW8       30.12R WCI  25
HOLYOKE        FAIR      28  18  64 NW9       30.11S WCI  20
FORT MORGAN    MOCLDY    21  12  67 W6        30.14R WCI  14
$$

COZ086-089-092>099-231000-
...SOUTHEAST COLORADO...

CITY           SKY/WX    TMP DP  RH WIND       PRES   REMARKS
PUEBLO         FAIR      25  11  55 CALM      30.14R
LA JUNTA       FAIR      26  10  50 S3        30.15R
LAMAR          FAIR      11   6  81 W6        30.16R WCI   1
SPRINGFIELD      N/A     16   7  67 W9        30.14S WCI   4
$$




USA.gov is the U.S. government's official web portal to all federal, state and local government web resources and services.